EW3172 Weather Reports


Display with metric or nautical units.
time (UTC)temp
F
wind
direction
speed
MPH
gust
MPH
rain 1hr
in
rain 24hr
in
rain mn
in
humidity
%
barometer
mb
20260507024554 52 144 0.0 0.0 0.00 0.00 0.00 79 1015.8
20260507023052 52 144 0.0 0.0 0.00 0.00 0.00 80 1015.7
20260507021552 53 144 0.0 0.0 0.00 0.00 0.00 79 1015.5
20260507020053 53 144 0.0 0.0 0.00 0.00 0.00 78 1015.6
20260507014555 54 144 0.0 0.0 0.00 0.00 0.00 78 1015.6
20260507013108 54 144 0.0 0.0 0.00 0.00 0.00 75 1015.6
20260507011551 54 144 0.0 0.0 0.00 0.00 0.00 74 1015.7
20260507010101 55 144 0.0 0.0 0.00 0.00 0.00 74 1015.6
20260507004550 55 144 0.0 0.0 0.00 0.00 0.00 71 1015.6
20260507003049 56 144 0.0 0.0 0.00 0.00 0.00 71 1015.6
20260507001552 56 144 0.0 0.0 0.00 0.00 0.00 70 1015.5
20260507000048 57 144 0.0 0.0 0.00 0.00 0.00 70 1015.4
20260506234549 57 143 0.0 0.0 0.00 0.00 0.00 69 1015.5
20260506233100 57 143 0.0 0.0 0.00 0.00 0.00 68 1015.5
20260506231546 58 156 0.0 0.0 0.00 0.00 0.00 65 1015.6
20260506230044 58 157 0.0 0.0 0.00 0.00 0.00 63 1015.7
20260506224543 59 157 0.0 0.0 0.00 0.00 0.00 60 1015.9
20260506223042 60 156 0.0 5.0 0.00 0.00 0.00 60 1016.0
20260506221543 60 211 0.0 6.0 0.00 0.00 0.00 47 1016.2
20260506220042 59 123 0.0 2.0 0.00 0.00 0.00 63 1016.3
20260506214540 59 112 0.0 0.0 0.00 0.00 0.00 64 1016.6
20260506213040 59 109 0.0 5.0 0.00 0.00 0.00 66 1016.6
20260506211540 59 168 0.0 1.0 0.00 0.00 0.00 64 1016.9
20260506210039 59 168 0.0 5.0 0.00 0.00 0.00 62 1016.8
20260506204539 60 175 0.0 1.0 0.00 0.00 0.00 63 1016.9
20260506203038 60 175 0.0 3.0 0.00 0.00 0.00 61 1016.9
20260506201540 60 175 0.0 4.0 0.00 0.00 0.00 60 1017.1
20260506200042 60 175 0.0 3.0 0.00 0.00 0.00 61 1017.4
20260506194544 62 185 0.0 4.0 0.00 0.00 0.00 56 1017.5
20260506193035 62 243 0.0 0.0 0.00 0.00 0.00 56 1017.6
20260506191534 62 221 0.0 1.0 0.00 0.00 0.00 50 1017.9
20260506190030 62 214 0.0 3.0 0.00 0.00 0.00 49 1018.0
20260506184526 60 319 0.0 4.0 0.00 0.01 0.00 52 1018.1
20260506183024 59 319 1.0 5.0 0.00 0.01 0.00 49 1018.2
20260506181522 58 322 0.0 3.0 0.00 0.01 0.00 51 1018.4
20260506180020 58 322 0.0 8.0 0.00 0.01 0.00 52 1018.4
20260506174518 58 324 0.0 5.0 0.00 0.01 0.00 52 1018.3
20260506173022 57 323 1.0 5.0 0.00 0.01 0.00 54 1018.2
20260506171513 56 323 0.0 3.0 0.00 0.01 0.00 57 1018.1
20260506170009 55 323 0.0 6.0 0.00 0.01 0.00 56 1018.2
20260506164507 54 323 1.0 6.0 0.00 0.02 0.00 58 1018.3
20260506163005 53 322 1.0 5.0 0.00 0.02 0.00 57 1018.2
20260506161501 53 322 1.0 7.0 0.00 0.02 0.00 52 1018.2
20260506160110 52 314 1.0 8.0 0.00 0.02 0.00 50 1018.2
20260506154556 51 314 0.0 9.0 0.00 0.07 0.00 50 1018.2
20260506153051 50 308 2.0 6.0 0.00 0.07 0.00 52 1018.1
20260506151548 48 321 0.0 5.0 0.00 0.07 0.00 54 1018.1
20260506150044 46 324 0.0 0.0 0.00 0.07 0.00 60 1018.1
20260506144539 45 324 0.0 0.0 0.00 0.14 0.00 63 1018.1
20260506143038 44 324 0.0 0.0 0.00 0.14 0.00 65 1018.0
20260506141542 43 324 0.0 0.0 0.00 0.14 0.00 69 1018.0
20260506140029 42 324 0.0 0.0 0.00 0.14 0.00 70 1017.8
20260506134526 41 324 0.0 0.0 0.00 0.20 0.00 72 1017.7
20260506133023 39 324 0.0 0.0 0.00 0.20 0.00 79 1017.3
20260506131519 37 324 0.0 0.0 0.00 0.20 0.00 85 1017.2
20260506130020 37 324 0.0 0.0 0.00 0.20 0.00 85 1017.2
20260506124516 37 324 0.0 0.0 0.00 0.20 0.00 86 1017.0
20260506123017 38 324 0.0 0.0 0.00 0.20 0.00 88 1016.8
20260506121516 38 324 1.0 4.0 0.00 0.20 0.00 89 1016.8
20260506120011 37 326 1.0 4.0 0.00 0.20 0.00 91 1016.7
20260506114511 37 330 0.0 3.0 0.00 0.20 0.00 93 1016.5
20260506113009 37 330 1.0 3.0 0.00 0.20 0.00 95 1016.5
20260506111506 37 345 0.0 0.0 0.00 0.20 0.00 96 1016.4
20260506110005 36 345 0.0 2.0 0.00 0.20 0.00 98 1016.4
20260506104506 36 347 0.0 0.0 0.00 0.20 0.00 98 1016.2
20260506103008 36 347 0.0 0.0 0.00 0.20 0.00 98 1016.2
20260506101505 35 347 0.0 3.0 0.00 0.20 0.00 98 1016.2
20260506100003 35 21 0.0 0.0 0.00 0.20 0.00 98 1016.2
20260506094502 34 21 0.0 0.0 0.00 0.20 0.00 98 1016.2
20260506093002 34 21 0.0 0.0 0.00 0.20 0.00 98 1016.2
20260506091503 34 21 0.0 0.0 0.00 0.20 0.00 98 1016.1
20260506090059 34 21 0.0 0.0 0.00 0.20 0.00 98 1016.3
20260506084558 35 21 0.0 0.0 0.00 0.20 0.00 98 1016.4
20260506083057 35 21 0.0 0.0 0.00 0.20 0.00 98 1016.5
20260506081555 35 21 0.0 0.0 0.00 0.20 0.00 98 1016.5
20260506073057 36 114 0.0 0.0 0.00 0.21 0.00 98 1016.7
20260506071553 36 114 0.0 0.0 0.00 0.21 0.00 98 1016.8
20260506070107 36 114 0.0 0.0 0.00 0.21 0.00 98 1016.7
20260506061544 37 114 0.0 0.0 0.00 0.24 0.21 98 1016.1
20260506044550 38 114 0.0 0.0 0.00 0.26 0.21 98 1015.3
20260506043037 38 114 0.0 0.0 0.00 0.26 0.21 98 1015.1
20260506041546 38 114 0.0 0.0 0.00 0.26 0.21 98 1015.1
20260506040041 38 114 0.0 0.0 0.00 0.26 0.21 98 1014.9
20260506034534 38 114 0.0 0.0 0.00 0.26 0.21 98 1014.9
20260506033031 38 114 0.0 0.0 0.00 0.26 0.21 98 1014.7
20260506031534 38 114 0.0 0.0 0.00 0.26 0.21 98 1014.5
20260506030027 39 114 0.0 0.0 0.00 0.26 0.21 97 1014.2